星链-5586 (STARLINK-5586 )

导读

STARLINK-5586是美国太空探索技术公司星链星座的卫星,于2023年1月26日发射升空,归属美国。星链系统旨在构建全球卫星互联网,该卫星加入星座后,进一步拓展了星链的全球覆盖范围,为全球不同地区用户提供低延迟、高速率的宽带互联网服务。

Basic Information
目录编号:
55376
目录名称:
STARLINK-5586
国际标识:
2023-013AX
轨道中心:
EARTH
卫星名称:
星链-5586
卫星全名:
星链-5586 (STARLINK-5586 )
卫星状态:
在轨 (已飞行1317 天)
发射日期:
2023-01-26 UTC
国别 :
美国 (US)
星等 :
--
Orbit Information
数据来源 国际轨道数据
星历时间: 2026-09-04T00:30:02+0800
1天前
查看轨道信息
半长轴: 6861.201km
偏心率: 0.0001126
轨道倾角: 43.002°
近地点辐角 275.494°
升交点赤经 3.641°
平近点角 84.578°
近地点: 482.291km
远地点: 483.837km
周期: 94.267分钟
每日圈数: 15.275752
Detailed Information
固有亮度:
5
最大亮度:
2.5
卫星平台:
Starlink v1.5
覆盖范围:
全球
运营商:
太空探索技术公司
运营商所在国:
美国
制造商(研发单位):
太空探索技术公司
制造商所在国:
美国
使用方式:
暂无
Satellite Introduction
星链(Starlink)计划是由太空探索技术公司(SpaceX)提出的一个巨型低轨卫星互联网星座项目,计划在2019年至2024年间在太空搭建由约1.2万颗卫星组成的“星链”网络,其中1584颗将部署在地球上空550千米处的近地轨道,并从2020年开始工作。该卫星仍在工作。
2D Orbit Map
3D Orbit Map
Orbit Altitude Analysis Chart
Orbit Inclination Analysis Chart
Orbit Comprehensive Analysis Chart
View Comprehensive Chart
Conjunction Data List
Event ID Objects TCA Miss Dist (km) Collision Risk Probability Collision Risk Index (CRI) Action
CDM_260906-175905-537606-364821
2026-09-06T
17:59:38+0000
1.086 km
极远距离
1.129768E-5 中风险 0.56
CDM_260904-213305-537606-393821
2026-09-04T
21:33:21+0000
1.825 km
极远距离
3.31805E-6 低风险 0.45
CDM_260905-004105-537606-393821
2026-09-05T
00:41:46+0000
2.499 km
极远距离
1.605276E-6 低风险 0.39
CDM_260906-000103-945105-537622
SWARM B (39451)
2026-09-06T
00:01:24+0000
2.573 km
极远距离
1.062894E-6 低风险 0.36